QPF
0.00 0.00 0.00 0.00 0.00 0.00 0.00 0.00 0.00 0.00 0.00 0.00 0.00 0.02 0.00 0.00 0.00 0.00 0.00 0.00 0.01 0.05 0.03 0.01 0.06 0.01 0.02 0.02 0.00 0.00 0.00 0.00 0.00 0.00 0.00 0.00 0.00 0.00 0.00 0.00 0.00 0.00 0.00
0.00 0.00 0.00 0.00 0.00 0.00 0.00 0.00 0.00 0.00 0.00 0.00 0.00 0.01 0.01 0.00 0.00 0.00 0.00 0.01 0.02 0.02 0.01 0.03 0.03 0.01 0.01 0.00 0.00 0.00 0.00 0.00 0.00 0.00 0.00 0.01 0.01 0.00 0.00 0.00 0.00 0.00 0.00
0.00 0.00 0.00 0.00 0.00 0.00 0.00 0.00 0.00 0.00 0.00 0.00 0.00 0.03 0.04 0.01 0.01 0.00 0.01 0.00 0.00 0.01 0.01 0.03 0.02 0.03 0.00 0.00 0.00 0.00 0.00 0.00 0.00 0.00 0.00 0.00 0.01 0.01 0.00 0.00 0.00 0.00 0.00
0.00 0.00 0.00 0.00 0.00 0.00 0.00 0.00 0.00 0.00 0.00 0.00 0.00 0.01 0.00 0.00 0.00 0.00 0.00 0.00 0.00 0.00 0.00 0.00 0.02 0.00 0.00 0.00 0.00 0.00 0.00 0.00 0.00 0.00 0.00 0.00 0.00 0.00 0.01 0.00 0.00 0.00 0.00
0.00 0.00 0.00 0.00 0.00 0.00 0.00 0.00 0.00 0.00 0.00 0.00 0.00 0.02 0.00 0.00 0.00 0.00 0.00 0.01 0.02 0.00 0.00 0.00 0.00 0.00 0.00 0.00 0.00 0.00 0.00 0.00 0.00 0.00 0.00 0.00 0.00 0.00 0.00 0.00 0.00 0.00 0.00
0.00 0.00 0.00 0.00 0.00 0.00 0.00 0.00 0.00 0.00 0.00 0.01 0.00 0.02 0.01 0.00 0.00 0.00 0.00 0.00 0.00 0.00 0.00 0.00 0.00 0.00 0.00 0.00 0.00 0.00 0.00 0.00 0.00 0.00 0.00 0.00 0.00 0.00 0.00 0.00 0.00 0.00 0.00
0.00 0.00 0.00 0.00 0.00 0.00 0.00 0.00 0.00 0.00 0.00 0.00 0.00 0.00 0.00 0.00 0.01 0.00 0.00 0.00 0.00 0.00 0.00 0.00 0.00 0.00 0.00 0.00 0.00 0.00 0.00 0.00 0.00 0.00 0.00 0.00 0.00 0.00 0.00 0.00 0.00 0.00 0.00
0.00 0.00 0.00 0.00 0.00 0.00 0.00 0.00 0.00 0.00 0.00 0.00 0.00 0.00 0.00 0.00 0.00 0.00 0.00 0.00 0.00 0.00 0.00 0.00 0.00 0.00 0.00 0.00 0.00 0.00 0.00 0.00 0.00 0.00 0.00 0.00 0.00 0.00 0.00 0.00 0.00 0.00 0.00
0.00 0.00 0.00 0.00 0.00 0.00 0.00 0.00 0.00 0.00 0.00 0.00 0.00 0.00 0.00 0.00 0.00 0.00 0.00 0.00 0.00 0.00 0.00 0.00 0.00 0.00 0.00 0.00 0.00 0.00 0.00 0.00 0.00 0.00 0.00 0.00 0.00 0.00 0.00 0.00 0.00 0.00 0.00
0.00 0.00 0.00 0.00 0.00 0.00 0.00 0.00 0.00 0.00 0.00 0.00 0.00 0.00 0.00 0.00 0.00 0.00 0.00 0.00 0.00 0.00 0.00 0.00 0.00 0.00 0.00 0.00 0.00 0.00 0.00 0.00 0.00 0.00 0.00 0.00 0.00 0.00 0.00 0.00 0.00 0.00 0.00
0.00 0.00 0.00 0.00 0.00 0.00 0.00 0.00 0.00 0.00 0.00 0.00 0.00 0.00 0.00 0.00 0.00 0.00 0.00 0.00 0.00 0.00 0.00 0.00 0.00 0.00 0.00 0.00 0.00 0.00 0.00 0.00 0.00 0.00 0.00 0.00 0.00 0.00 0.00 0.00 0.00 0.00 0.00
0.00 0.00 0.00 0.00 0.00 0.00 0.00 0.00 0.00 0.00 0.00 0.00 0.00 0.00 0.00 0.00 0.00 0.00 0.00 0.00 0.00 0.00 0.00 0.00 0.00 0.00 0.00 0.00 0.00 0.00 0.00 0.00 0.00 0.00 0.00 0.00 0.00 0.01 0.01 0.00 0.00 0.00 0.00
0.00 0.00 0.00 0.00 0.00 0.00 0.00 0.00 0.00 0.00 0.00 0.00 0.00 0.00 0.00 0.00 0.00 0.00 0.00 0.00 0.00 0.00 0.00 0.00 0.00 0.00 0.00 0.00 0.00 0.00 0.00 0.00 0.00 0.00 0.00 0.00 0.00 0.01 0.02 0.02 0.02 0.01 0.02
0.00 0.00 0.00 0.00 0.00 0.00 0.00 0.00 0.00 0.00 0.00 0.00 0.00 0.00 0.00 0.00 0.00 0.00 0.00 0.00 0.00 0.00 0.00 0.00 0.00 0.00 0.00 0.00 0.00 0.00 0.00 0.00 0.00 0.00 0.00 0.00 0.01 0.02 0.02 0.02 0.03 0.04 0.05
0.00 0.00 0.00 0.00 0.00 0.00 0.00 0.00 0.00 0.00 0.00 0.00 0.00 0.00 0.00 0.00 0.00 0.00 0.00 0.00 0.00 0.00 0.00 0.00 0.00 0.00 0.00 0.00 0.00 0.00 0.00 0.00 0.00 0.00 0.00 0.00 0.03 0.05 0.09 0.07 0.04 0.03 0.03
0.00 0.00 0.00 0.00 0.00 0.00 0.00 0.00 0.00 0.00 0.00 0.00 0.00 0.00 0.00 0.00 0.00 0.00 0.00 0.00 0.00 0.00 0.00 0.00 0.00 0.01 0.00 0.00 0.00 0.00 0.00 0.00 0.00 0.00 0.00 0.01 0.04 0.08 0.09 0.04 0.01 0.01 0.01
0.00 0.00 0.00 0.00 0.00 0.00 0.00 0.00 0.00 0.00 0.00 0.00 0.00 0.00 0.00 0.00 0.00 0.00 0.00 0.00 0.00 0.00 0.00 0.03 0.01 0.00 0.00 0.00 0.00 0.00 0.00 0.00 0.00 0.01 0.02 0.00 0.04 0.08 0.01 0.00 0.00 0.00 0.01
0.00 0.00 0.00 0.00 0.00 0.00 0.00 0.00 0.00 0.00 0.00 0.00 0.00 0.00 0.00 0.00 0.00 0.00 0.00 0.00 0.00 0.00 0.00 0.01 0.01 0.00 0.00 0.00 0.00 0.00 0.00 0.00 0.00 0.02 0.02 0.01 0.01 0.03 0.01 0.01 0.00 0.00 0.02
0.00 0.00 0.00 0.00 0.00 0.00 0.00 0.00 0.00 0.00 0.00 0.00 0.00 0.00 0.00 0.00 0.00 0.00 0.00 0.00 0.00 0.00 0.00 0.01 0.01 0.00 0.00 0.01 0.01 0.00 0.00 0.00 0.00 0.01 0.03 0.04 0.01 0.08 0.07 0.00 0.00 0.01 0.01
0.00 0.00 0.00 0.00 0.00 0.00 0.00 0.00 0.00 0.00 0.00 0.00 0.00 0.00 0.00 0.00 0.00 0.00 0.00 0.00 0.01 0.01 0.00 0.00 0.02 0.02 0.01 0.02 0.02 0.00 0.00 0.00 0.01 0.04 0.04 0.19 0.02 0.03 0.01 0.00 0.00 0.03 0.03
0.00 0.00 0.00 0.00 0.00 0.00 0.00 0.00 0.00 0.00 0.00 0.00 0.00 0.00 0.00 0.00 0.00 0.00 0.00 0.00 0.00 0.00 0.00 0.00 0.00 0.02 0.03 0.04 0.00 0.00 0.00 0.00 0.01 0.02 0.03 0.02 0.03 0.01 0.01 0.00 0.00 0.01 0.01
0.00 0.00 0.00 0.00 0.00 0.00 0.00 0.00 0.00 0.00 0.00 0.00 0.00 0.00 0.00 0.00 0.00 0.00 0.00 0.00 0.00 0.00 0.00 0.00 0.02 0.06 0.08 0.03 0.00 0.00 0.00 0.00 0.00 0.01 0.03 0.05 0.03 0.09 0.03 0.00 0.00 0.00 0.00
0.00 0.00 0.00 0.00 0.00 0.00 0.00 0.00 0.00 0.00 0.00 0.00 0.00 0.00 0.00 0.00 0.01 0.01 0.00 0.00 0.00 0.00 0.01 0.02 0.04 0.04 0.04 0.03 0.00 0.01 0.02 0.01 0.01 0.01 0.04 0.04 0.02 0.01 0.00 0.00 0.00 0.00 0.00
0.00 0.00 0.00 0.00 0.00 0.00 0.00 0.00 0.00 0.00 0.00 0.00 0.00 0.00 0.00 0.00 0.01 0.01 0.00 0.00 0.00 0.00 0.01 0.04 0.06 0.06 0.06 0.02 0.01 0.01 0.02 0.01 0.00 0.00 0.01 0.00 0.00 0.00 0.00 0.00 0.00 0.00 0.00
0.00 0.00 0.00 0.00 0.00 0.00 0.00 0.00 0.00 0.00 0.00 0.00 0.00 0.01 0.00 0.00 0.00 0.01 0.00 0.00 0.01 0.02 0.03 0.04 0.04 0.01 0.01 0.01 0.02 0.01 0.00 0.00 0.00 0.00 0.00 0.00 0.00 0.00 0.00 0.00 0.00 0.00 0.00
0.00 0.00 0.00 0.01 0.02 0.01 0.00 0.00 0.00 0.00 0.00 0.00 0.00 0.01 0.01 0.01 0.00 0.00 0.00 0.00 0.01 0.00 0.01 0.03 0.01 0.03 0.01 0.01 0.01 0.00 0.00 0.00 0.00 0.00 0.00 0.00 0.00 0.00 0.00 0.00 0.00 0.00 0.00
MSLP
1003.50 1004.36 1005.40 1006.27 1007.34 1008.30 1009.23 1010.14 1010.91 1011.38 1012.00 1012.79 1013.46 1013.79 1014.04 1014.17 1014.17 1014.17 1014.40 1014.88 1015.06 1015.38 1015.83 1015.93 1016.20 1016.23 1016.61 1017.08 1017.24 1017.45 1017.58 1017.47 1017.36 1017.40 1017.32 1017.51 1017.33 1017.42 1017.27 1017.15 1017.52 1017.51 1017.48
1002.32 1003.52 1004.57 1005.55 1006.49 1007.59 1008.65 1009.61 1010.39 1011.11 1011.78 1012.34 1012.86 1013.33 1013.62 1013.59 1013.64 1013.37 1013.78 1014.15 1014.87 1015.02 1015.49 1015.83 1016.22 1016.22 1016.45 1016.82 1017.19 1017.53 1017.65 1017.41 1017.21 1017.45 1017.47 1017.66 1017.67 1017.55 1017.53 1017.66 1017.97 1017.87 1017.88
1001.19 1002.38 1003.59 1004.73 1005.66 1006.68 1007.74 1008.78 1009.82 1010.71 1011.41 1011.95 1012.60 1013.12 1013.50 1013.48 1013.43 1013.23 1013.69 1013.92 1014.17 1014.68 1015.35 1015.65 1015.81 1016.20 1016.32 1016.74 1017.04 1017.36 1017.56 1017.63 1017.51 1017.36 1017.66 1017.67 1017.72 1017.92 1017.70 1017.87 1017.99 1018.13 1018.34
1000.10 1001.21 1002.42 1003.69 1004.82 1005.81 1007.03 1008.15 1009.16 1010.09 1010.93 1011.64 1012.08 1012.47 1012.70 1012.80 1012.65 1012.75 1013.17 1013.36 1013.69 1014.17 1014.51 1015.07 1015.39 1015.78 1016.20 1016.57 1016.84 1017.18 1017.55 1017.54 1017.59 1017.56 1017.48 1017.68 1017.86 1017.97 1018.22 1018.21 1018.11 1018.12 1018.48
998.78 1000.05 1001.32 1002.59 1003.91 1005.03 1006.18 1007.25 1008.37 1009.37 1010.12 1010.86 1011.36 1011.89 1012.12 1012.34 1012.24 1012.25 1012.47 1013.05 1013.62 1013.93 1014.27 1014.69 1015.05 1015.69 1016.16 1016.35 1016.72 1017.03 1017.33 1017.53 1017.47 1017.47 1017.47 1017.60 1017.74 1017.86 1017.92 1018.38 1018.48 1018.46 1018.01
997.33 998.73 1000.09 1001.55 1002.83 1004.03 1005.13 1006.39 1007.54 1008.65 1009.39 1010.17 1010.84 1011.29 1011.71 1011.85 1011.95 1012.01 1012.35 1012.77 1013.39 1013.58 1013.77 1014.23 1014.86 1015.34 1015.98 1016.33 1016.68 1017.05 1017.37 1017.47 1017.43 1017.60 1017.59 1017.63 1017.72 1017.92 1017.92 1018.11 1018.20 1018.30 1018.14
995.86 997.33 998.77 1000.16 1001.52 1002.77 1003.96 1005.27 1006.50 1007.67 1008.61 1009.36 1010.20 1010.71 1011.11 1011.38 1011.64 1011.57 1011.63 1012.06 1012.59 1013.11 1013.62 1014.02 1014.68 1015.21 1015.61 1015.73 1016.12 1016.69 1017.04 1017.40 1017.59 1017.63 1017.78 1017.74 1017.68 1017.76 1017.98 1018.17 1018.59 1018.73 1018.43
994.47 995.93 997.42 998.79 1000.33 1001.71 1003.07 1004.23 1005.49 1006.70 1007.68 1008.57 1009.45 1010.10 1010.62 1010.84 1011.18 1011.09 1010.90 1011.49 1011.98 1012.34 1013.09 1013.62 1014.11 1014.52 1015.07 1015.54 1015.89 1016.42 1016.79 1017.08 1017.38 1017.56 1017.56 1017.70 1017.58 1017.51 1017.66 1018.03 1018.36 1018.64 1018.47
993.28 994.71 996.22 997.72 999.32 1000.82 1002.09 1003.30 1004.47 1005.76 1006.81 1007.67 1008.60 1009.25 1009.87 1010.17 1010.27 1010.22 1010.70 1011.07 1011.51 1011.92 1012.67 1013.09 1013.66 1014.29 1014.95 1015.30 1015.91 1016.27 1016.57 1016.66 1017.06 1017.14 1017.19 1017.21 1017.26 1017.35 1017.23 1017.29 1017.77 1018.32 1018.55
992.28 993.56 995.05 996.59 998.13 999.77 1001.24 1002.50 1003.69 1004.79 1005.97 1006.91 1007.66 1008.29 1008.93 1009.28 1009.35 1009.70 1010.18 1010.57 1010.98 1011.31 1012.01 1012.75 1013.41 1014.04 1014.60 1015.08 1015.50 1015.93 1016.07 1016.27 1016.61 1016.95 1016.97 1017.05 1016.91 1017.03 1017.10 1017.18 1017.26 1017.67 1018.00
991.56 992.49 993.84 995.42 997.30 998.98 1000.27 1001.48 1002.75 1003.94 1005.08 1006.04 1006.75 1007.37 1007.83 1008.21 1008.73 1008.98 1009.39 1009.85 1010.43 1010.77 1011.45 1012.26 1012.95 1013.68 1014.10 1014.58 1015.07 1015.44 1015.54 1015.65 1016.07 1016.33 1016.65 1016.79 1016.85 1016.82 1016.85 1016.97 1017.08 1017.19 1017.26
990.64 991.62 993.01 994.42 996.08 997.67 999.21 1000.47 1001.69 1002.83 1004.05 1005.08 1005.82 1006.32 1006.67 1007.42 1007.92 1008.33 1008.58 1009.20 1009.75 1010.45 1011.07 1011.79 1012.48 1013.05 1013.69 1014.11 1014.46 1014.85 1014.80 1015.03 1015.48 1015.77 1016.05 1016.36 1016.52 1016.66 1016.86 1016.85 1016.96 1016.94 1016.95
990.35 991.34 992.31 993.86 995.07 996.43 997.89 999.24 1000.53 1001.71 1003.03 1004.04 1004.66 1005.27 1005.91 1006.54 1006.88 1007.41 1008.08 1008.59 1009.16 1009.70 1010.38 1011.04 1011.75 1012.39 1012.92 1013.27 1013.61 1014.07 1014.20 1014.20 1014.58 1015.00 1015.35 1015.80 1016.15 1016.40 1016.69 1017.02 1017.14 1017.15 1017.13
990.24 991.00 991.95 992.91 994.01 995.21 996.60 998.01 999.41 1000.56 1001.77 1002.86 1003.47 1004.15 1004.90 1005.29 1005.82 1006.50 1007.13 1007.69 1008.30 1009.04 1009.71 1010.50 1011.17 1011.72 1012.16 1012.71 1013.20 1013.68 1013.97 1013.89 1014.05 1014.30 1014.83 1015.10 1015.56 1015.92 1016.32 1016.57 1016.81 1016.95 1017.13
990.18 990.86 991.41 992.17 993.20 994.42 995.69 996.81 998.09 999.43 1000.37 1001.48 1002.26 1003.08 1003.69 1004.25 1005.05 1005.72 1006.21 1007.04 1007.68 1008.56 1009.37 1010.28 1010.98 1011.69 1012.21 1012.47 1012.90 1013.38 1013.68 1013.84 1013.87 1013.90 1014.03 1014.59 1014.92 1015.36 1015.57 1015.93 1016.43 1016.68 1016.93
989.48 990.53 990.92 991.54 992.48 993.62 994.86 995.89 996.80 998.00 999.18 1000.21 1001.13 1001.84 1002.74 1003.52 1004.28 1005.04 1005.77 1006.75 1007.46 1008.40 1009.14 1009.82 1010.53 1011.34 1011.35 1011.87 1012.39 1012.76 1013.14 1013.34 1013.53 1013.67 1013.72 1014.31 1014.65 1015.00 1015.61 1015.71 1015.85 1015.96 1016.06
989.04 989.53 990.53 991.03 991.56 992.38 993.52 994.86 995.86 996.85 998.13 999.19 1000.08 1000.86 1001.74 1002.61 1003.54 1004.41 1005.29 1006.07 1006.96 1007.97 1008.73 1009.35 1009.70 1010.63 1011.80 1011.72 1011.72 1012.33 1012.78 1013.08 1012.99 1013.23 1013.47 1014.10 1014.28 1014.59 1014.97 1015.02 1015.33 1015.32 1015.16
988.22 988.73 989.24 990.33 991.00 991.53 992.70 993.95 995.36 996.33 997.22 998.33 999.32 1000.19 1000.94 1001.85 1003.03 1004.03 1004.89 1005.89 1006.87 1007.66 1008.35 1009.13 1009.93 1010.38 1010.76 1011.05 1011.72 1012.11 1012.45 1012.67 1012.76 1012.98 1013.17 1013.68 1013.87 1014.18 1014.31 1014.64 1014.84 1014.83 1014.72
987.74 987.75 988.21 989.03 990.12 990.88 991.86 993.07 994.38 995.48 996.50 997.46 998.36 999.29 1000.31 1001.60 1002.77 1003.76 1004.89 1005.77 1006.69 1007.43 1008.02 1008.61 1009.25 1009.97 1010.51 1010.86 1011.76 1012.12 1012.49 1012.68 1012.69 1012.82 1013.02 1013.23 1013.46 1013.47 1013.69 1014.46 1014.73 1014.63 1014.13
987.10 987.33 987.57 988.01 989.29 990.32 991.38 992.71 993.81 994.80 995.64 996.51 997.59 998.76 1000.01 1001.40 1002.79 1003.91 1004.90 1005.75 1006.46 1007.07 1007.46 1007.95 1008.59 1009.40 1009.98 1010.84 1011.12 1011.79 1012.06 1012.41 1012.64 1012.62 1012.54 1012.69 1013.01 1013.44 1013.88 1014.28 1014.33 1014.19 1013.86
986.17 986.86 987.91 988.45 989.04 990.10 991.15 992.47 993.45 994.44 995.33 996.58 997.95 999.17 1000.53 1001.82 1003.01 1004.10 1004.91 1005.75 1006.36 1006.80 1007.42 1007.96 1008.71 1009.38 1009.91 1010.52 1010.84 1011.34 1011.70 1011.72 1012.00 1012.01 1012.07 1012.47 1012.67 1013.04 1013.63 1014.08 1014.15 1014.33 1014.30
986.98 987.28 988.15 988.84 989.58 990.45 991.46 992.85 994.03 995.20 996.19 997.29 998.43 999.61 1001.07 1002.19 1003.39 1004.82 1005.66 1005.63 1006.39 1006.90 1007.49 1007.99 1008.40 1008.83 1009.54 1010.00 1010.64 1011.02 1011.32 1011.42 1011.60 1011.69 1011.66 1012.31 1012.77 1013.31 1013.74 1014.14 1014.28 1014.31 1014.20
987.83 988.33 989.63 990.41 990.94 991.48 992.34 993.41 994.63 995.79 996.96 997.82 998.97 1000.22 1001.48 1002.59 1003.56 1004.15 1005.49 1006.15 1006.41 1006.77 1007.22 1007.69 1008.29 1008.64 1008.85 1009.68 1010.21 1010.68 1011.09 1011.64 1011.99 1011.75 1012.04 1012.53 1012.98 1013.42 1013.76 1013.83 1013.87 1013.99 1013.93
989.33 989.89 990.67 991.70 992.28 992.89 993.52 994.33 995.47 996.48 997.37 998.38 999.68 1000.76 1001.75 1002.79 1003.69 1004.72 1005.73 1006.02 1006.30 1006.74 1007.11 1007.40 1008.20 1008.36 1008.78 1009.25 1010.10 1010.74 1011.12 1011.60 1011.82 1011.98 1012.23 1012.50 1012.65 1012.84 1013.15 1013.26 1013.56 1013.59 1013.44
991.02 991.83 992.27 992.92 993.60 994.18 994.62 995.36 996.31 997.36 998.11 999.06 1000.22 1001.32 1002.34 1003.16 1004.14 1005.29 1006.39 1006.53 1007.03 1007.43 1007.25 1007.67 1007.91 1008.12 1008.51 1008.67 1009.12 1009.72 1010.42 1010.60 1010.83 1011.27 1011.70 1012.22 1012.24 1012.18 1012.34 1012.55 1012.64 1012.78 1012.72
993.09 993.62 994.04 994.52 995.01 995.19 995.91 996.47 997.14 997.94 998.66 999.59 1000.67 1001.63 1002.58 1003.39 1004.52 1005.45 1006.82 1007.78 1007.88 1007.89 1007.81 1008.15 1007.65 1008.80 1008.56 1008.40 1009.03 1009.46 1010.03 1010.29 1010.51 1010.84 1010.95 1011.24 1011.20 1011.18 1011.32 1011.84 1011.99 1012.15 1012.25
Thickness
5850 5851 5846 5844 5838 5833 5827 5821 5816 5816 5812 5805 5799 5797 5795 5797 5799 5799 5797 5793 5791 5788 5784 5783 5779 5779 5775 5769 5768 5765 5760 5759 5759 5754 5753 5752 5756 5755 5753 5754 5750 5748 5747
5855 5851 5849 5846 5842 5835 5830 5824 5820 5817 5813 5810 5806 5802 5800 5803 5803 5805 5801 5798 5792 5791 5787 5783 5780 5778 5775 5770 5766 5762 5757 5759 5759 5749 5747 5737 5743 5748 5751 5748 5744 5745 5743
5857 5854 5851 5848 5847 5840 5835 5829 5824 5818 5814 5812 5808 5803 5801 5802 5801 5804 5801 5800 5798 5793 5787 5783 5779 5775 5775 5768 5765 5760 5756 5750 5754 5754 5743 5734 5729 5735 5744 5743 5741 5740 5737
5869 5865 5858 5852 5850 5846 5842 5835 5828 5822 5817 5813 5808 5803 5800 5797 5804 5806 5805 5803 5799 5795 5791 5785 5780 5776 5772 5767 5763 5760 5753 5751 5746 5748 5748 5745 5739 5728 5723 5737 5739 5738 5729
5879 5871 5865 5861 5856 5853 5846 5840 5832 5825 5821 5816 5813 5807 5803 5804 5807 5808 5807 5803 5800 5795 5792 5786 5781 5775 5769 5766 5761 5756 5752 5749 5746 5744 5743 5740 5737 5736 5728 5717 5723 5731 5736
5890 5883 5878 5870 5861 5859 5852 5843 5834 5826 5823 5818 5814 5810 5805 5804 5803 5805 5802 5802 5798 5797 5792 5785 5778 5772 5765 5759 5754 5750 5746 5743 5742 5740 5738 5735 5731 5726 5726 5720 5720 5719 5725
5896 5888 5881 5873 5867 5861 5856 5849 5839 5829 5824 5820 5814 5811 5808 5806 5803 5805 5807 5804 5799 5793 5787 5784 5775 5768 5762 5758 5753 5747 5742 5736 5734 5734 5732 5732 5731 5730 5726 5720 5712 5708 5714
5902 5895 5889 5882 5873 5866 5859 5852 5843 5832 5827 5821 5814 5812 5809 5808 5806 5809 5812 5807 5802 5798 5790 5783 5778 5773 5762 5755 5749 5743 5738 5736 5730 5728 5729 5728 5728 5728 5725 5718 5710 5702 5704
5901 5898 5895 5888 5879 5869 5862 5854 5847 5837 5830 5824 5818 5814 5811 5810 5811 5815 5813 5809 5804 5800 5791 5785 5778 5770 5762 5755 5747 5740 5732 5730 5729 5727 5725 5724 5724 5723 5722 5720 5713 5701 5691
5908 5903 5899 5892 5886 5877 5867 5860 5851 5841 5832 5826 5822 5818 5815 5815 5818 5818 5814 5810 5806 5801 5792 5785 5777 5770 5762 5755 5747 5740 5737 5730 5727 5724 5722 5719 5718 5715 5714 5711 5709 5704 5695
5909 5906 5905 5899 5889 5879 5871 5863 5855 5845 5835 5829 5825 5821 5820 5822 5822 5821 5819 5815 5807 5801 5794 5786 5778 5768 5762 5756 5747 5742 5740 5735 5729 5724 5718 5713 5710 5708 5706 5705 5702 5699 5697
5916 5912 5908 5900 5892 5883 5874 5866 5859 5850 5841 5834 5829 5827 5829 5827 5825 5823 5822 5817 5809 5802 5795 5786 5779 5773 5764 5758 5750 5742 5739 5733 5728 5723 5715 5707 5704 5700 5698 5697 5694 5692 5691
5909 5906 5906 5895 5893 5888 5879 5872 5863 5855 5847 5841 5838 5835 5832 5830 5828 5825 5822 5818 5812 5805 5797 5789 5779 5772 5766 5760 5755 5747 5740 5735 5728 5719 5711 5703 5698 5694 5691 5686 5682 5681 5682
5901 5900 5900 5895 5896 5891 5884 5876 5868 5861 5853 5848 5845 5839 5837 5836 5834 5830 5825 5821 5815 5805 5798 5790 5782 5774 5767 5759 5752 5744 5736 5733 5727 5721 5712 5704 5697 5691 5686 5680 5676 5674 5672
5894 5893 5895 5895 5892 5888 5884 5881 5874 5865 5861 5853 5849 5845 5844 5842 5837 5831 5826 5820 5813 5804 5796 5786 5779 5770 5761 5755 5747 5739 5732 5727 5723 5719 5713 5704 5697 5692 5688 5682 5673 5671 5665
5898 5890 5895 5898 5894 5887 5884 5882 5878 5871 5866 5858 5853 5852 5848 5843 5837 5831 5824 5815 5808 5798 5791 5783 5775 5764 5761 5752 5744 5738 5731 5724 5718 5713 5708 5700 5694 5687 5679 5676 5672 5669 5664
5891 5894 5888 5893 5897 5894 5890 5881 5879 5877 5867 5860 5857 5854 5850 5843 5836 5830 5821 5813 5803 5795 5787 5780 5774 5762 5748 5744 5741 5732 5726 5719 5714 5708 5704 5696 5691 5685 5680 5676 5669 5664 5663
5886 5892 5897 5891 5897 5900 5891 5886 5878 5872 5867 5860 5856 5853 5850 5843 5835 5826 5817 5808 5799 5790 5783 5774 5764 5755 5747 5740 5732 5725 5719 5712 5707 5703 5698 5690 5688 5683 5678 5671 5665 5661 5658
5888 5893 5901 5900 5893 5895 5893 5884 5877 5872 5865 5860 5857 5853 5848 5839 5830 5820 5810 5802 5792 5784 5777 5769 5760 5749 5742 5733 5722 5715 5708 5701 5698 5694 5691 5687 5684 5681 5672 5662 5655 5651 5650
5888 5889 5896 5897 5890 5893 5891 5878 5872 5868 5862 5862 5857 5852 5844 5832 5820 5811 5802 5795 5787 5779 5773 5766 5757 5746 5736 5723 5717 5708 5702 5695 5689 5688 5687 5682 5679 5670 5660 5652 5647 5644 5641
5886 5886 5883 5882 5885 5888 5884 5871 5868 5861 5863 5857 5848 5839 5832 5820 5811 5802 5795 5786 5780 5774 5763 5754 5746 5735 5727 5717 5709 5700 5697 5692 5686 5684 5681 5676 5668 5660 5650 5642 5639 5631 5625
5865 5871 5868 5868 5877 5877 5870 5859 5852 5852 5849 5843 5835 5827 5818 5809 5799 5784 5777 5779 5770 5761 5751 5744 5735 5729 5719 5711 5700 5693 5688 5686 5681 5676 5675 5666 5655 5646 5637 5629 5622 5617 5614
5848 5852 5844 5849 5854 5856 5854 5845 5842 5840 5834 5830 5822 5814 5805 5797 5784 5780 5769 5762 5759 5753 5745 5736 5725 5718 5714 5705 5695 5685 5679 5672 5667 5668 5658 5649 5641 5634 5624 5619 5615 5608 5604
5823 5827 5827 5824 5827 5833 5835 5834 5830 5828 5822 5815 5807 5800 5792 5785 5778 5771 5761 5757 5751 5744 5736 5728 5716 5712 5705 5698 5689 5679 5672 5663 5658 5652 5646 5639 5633 5626 5619 5613 5604 5600 5596
5801 5803 5804 5806 5808 5813 5818 5819 5816 5812 5806 5800 5792 5784 5778 5770 5764 5754 5745 5745 5731 5727 5726 5718 5711 5707 5700 5695 5688 5678 5667 5662 5655 5646 5637 5626 5621 5618 5613 5606 5601 5597 5593
5776 5780 5785 5787 5788 5795 5796 5800 5802 5796 5791 5784 5777 5770 5763 5756 5747 5739 5727 5711 5709 5706 5703 5698 5704 5688 5685 5684 5675 5667 5656 5649 5642 5635 5630 5623 5620 5614 5608 5600 5595 5590 5585